GW7263 Weather Reports


Display with metric or nautical units.
time (UTC)temp
F
wind
direction
speed
MPH
gust
MPH
rain 1hr
in
rain 24hr
in
rain mn
in
humidity
%
barometer
mb
20260503021601 46 322 0.0 0.0 0.00 0.00 0.00 85 1031.0
20260503020551 47 0.0 0.0 0.00 0.00 0.00 84 1031.0
20260503015540 46 323 0.0 1.0 0.00 0.00 0.00 84 1031.0
20260503014552 46 0.0 0.0 0.00 0.00 0.00 84 1030.9
20260503013541 46 0.0 0.0 0.00 0.00 0.00 84 1031.0
20260503012612 46 324 0.0 0.0 0.00 0.00 0.00 84 1031.2
20260503011628 46 0.0 0.0 0.00 0.00 0.00 84 1031.2
20260503010551 47 0.0 0.0 0.00 0.00 0.00 85 1031.2
20260503005541 46 0.0 0.0 0.00 0.00 0.00 84 1031.2
20260503004551 46 0.0 0.0 0.00 0.00 0.00 85 1031.4
20260503003522 47 0.0 0.0 0.00 0.00 0.00 83 1031.5
20260503002613 47 0.0 0.0 0.00 0.00 0.00 81 1031.6
20260503001603 48 0.0 0.0 0.00 0.00 0.00 81 1031.7
20260503000615 48 0.0 0.0 0.00 0.00 0.00 80 1031.8
20260502235542 48 0.0 0.0 0.00 0.00 0.00 81 1032.0
20260502234532 48 0.0 0.0 0.00 0.00 0.00 81 1032.1
20260502233548 49 0.0 0.0 0.00 0.00 0.00 79 1032.0
20260502232613 49 0.0 0.0 0.00 0.00 0.00 79 1032.1
20260502231603 50 324 0.0 0.0 0.00 0.00 0.00 77 1032.0
20260502230613 50 335 0.0 2.0 0.00 0.00 0.00 75 1032.0
20260502225543 50 297 1.0 1.0 0.00 0.00 0.00 77 1032.1
20260502224533 50 297 0.0 1.0 0.00 0.00 0.00 76 1032.0
20260502223524 50 297 0.0 0.0 0.00 0.00 0.00 77 1032.1
20260502222634 50 297 0.0 0.0 0.00 0.00 0.00 76 1032.2
20260502221624 50 297 0.0 0.0 0.00 0.00 0.00 75 1032.3
20260502220554 50 297 0.0 0.0 0.00 0.00 0.00 76 1032.2
20260502215544 51 297 0.0 0.0 0.00 0.00 0.00 74 1032.2
20260502214534 51 295 0.0 1.0 0.00 0.00 0.00 73 1032.2
20260502213524 51 286 0.0 1.0 0.00 0.00 0.00 75 1032.1
20260502212615 52 286 0.0 1.0 0.00 0.00 0.00 72 1032.2
20260502211605 52 280 0.0 1.0 0.00 0.00 0.00 71 1032.1
20260502210555 52 279 0.0 1.0 0.00 0.00 0.00 71 1032.1
20260502205545 53 0.0 0.0 0.00 0.00 0.00 70 1032.1
20260502204535 53 279 0.0 1.0 0.00 0.00 0.00 70 1032.0
20260502203545 53 279 0.0 1.0 0.00 0.00 0.00 69 1032.2
20260502202618 54 278 0.0 0.0 0.00 0.00 0.00 68 1032.2
20260502201606 55 278 0.0 0.0 0.00 0.00 0.00 66 1032.1
20260502200556 55 263 1.0 2.0 0.00 0.00 0.00 66 1032.2
20260502195545 55 259 1.0 1.0 0.00 0.00 0.00 65 1032.2
20260502194540 55 258 0.0 1.0 0.00 0.00 0.00 65 1032.0
20260502193526 56 258 0.0 1.0 0.00 0.00 0.00 64 1031.9
20260502192619 56 258 1.0 1.0 0.00 0.00 0.00 63 1031.7
20260502191607 57 258 1.0 1.0 0.00 0.00 0.00 61 1031.7
20260502190557 58 258 0.0 0.0 0.00 0.00 0.00 60 1031.6
20260502185607 58 258 1.0 1.0 0.00 0.00 0.00 57 1031.5
20260502184537 59 258 0.0 1.0 0.00 0.00 0.00 58 1031.2
20260502183526 59 258 0.0 1.0 0.00 0.00 0.00 56 1031.1
20260502182521 59 233 1.0 1.0 0.00 0.00 0.00 56 1031.0
20260502181608 60 229 0.0 1.0 0.00 0.00 0.00 55 1031.0
20260502180607 61 212 1.0 1.0 0.00 0.00 0.00 53 1030.8
20260502163549 67 227 1.0 2.0 0.00 0.00 0.00 42 1030.6
20260502162519 68 213 1.0 4.0 0.00 0.00 0.00 41 1030.6
20260502161610 68 215 2.0 3.0 0.00 0.00 0.00 41 1030.5
20260502160601 69 219 2.0 2.0 0.00 0.00 0.00 40 1030.7
20260502151611 73 199 4.0 7.0 0.00 0.00 0.00 35 1030.8
20260502150601 73 215 4.0 9.0 0.00 0.00 0.00 35 1030.9
20260502130602 73 205 4.0 8.0 0.00 0.00 0.00 34 1032.1
20260502123532 72 220 4.0 7.0 0.00 0.00 0.00 35 1032.5
20260502122523 73 201 3.0 10.0 0.00 0.00 0.00 36 1032.7
20260502121633 72 211 4.0 8.0 0.00 0.00 0.00 36 1032.8
20260502120603 72 187 4.0 9.0 0.00 0.00 0.00 36 1032.8
20260502115554 72 201 3.0 9.0 0.00 0.00 0.00 36 1033.0
20260502114543 71 203 4.0 9.0 0.00 0.00 0.00 37 1033.1
20260502113533 71 191 2.0 3.0 0.00 0.00 0.00 36 1033.2
20260502112525 71 208 4.0 8.0 0.00 0.00 0.00 36 1033.5
20260502111613 70 198 4.0 8.0 0.00 0.00 0.00 36 1033.7
20260502110625 70 189 3.0 6.0 0.00 0.00 0.00 37 1033.8
20260502105556 69 206 4.0 7.0 0.00 0.00 0.00 38 1034.1
20260502104543 69 201 4.0 8.0 0.00 0.00 0.00 38 1034.2
20260502103532 69 209 4.0 7.0 0.00 0.00 0.00 37 1034.5
20260502102524 69 211 3.0 7.0 0.00 0.00 0.00 39 1034.6
20260502101633 68 209 4.0 7.0 0.00 0.00 0.00 38 1034.7
20260502100603 68 201 2.0 4.0 0.00 0.00 0.00 39 1034.8
20260502090603 62 189 2.0 3.0 0.00 0.00 0.00 48 1035.8
20260502070626 52 194 0.0 0.0 0.00 0.00 0.00 73 1037.1
20260502065556 48 197 1.0 2.0 0.00 0.00 0.00 76 1037.2
20260502064546 45 0.0 0.0 0.00 0.00 0.00 84 1037.2
20260502063535 44 0.0 0.0 0.00 0.00 0.00 84 1037.3
20260502062525 44 0.0 0.0 0.00 0.00 0.00 84 1037.4
20260502061618 44 0.0 0.0 0.00 0.00 0.00 86 1037.4
20260502060606 44 0.0 0.0 0.00 0.00 0.00 85 1037.5
20260502055559 43 299 0.0 0.0 0.00 0.00 0.00 86 1037.7
20260502054546 43 299 0.0 0.0 0.00 0.00 0.00 87 1037.7
20260502053537 43 303 0.0 1.0 0.00 0.00 0.00 87 1037.7
20260502052530 42 303 0.0 1.0 0.00 0.00 0.00 87 1037.9
20260502051619 42 303 0.0 1.0 0.00 0.00 0.00 88 1038.0
20260502050611 42 303 0.0 0.0 0.00 0.00 0.00 88 1037.9
20260502045556 42 303 0.0 0.0 0.00 0.00 0.00 88 1037.8
20260502044546 41 303 0.0 1.0 0.00 0.00 0.00 89 1037.8
20260502043537 41 303 0.0 0.0 0.00 0.00 0.00 89 1037.7
20260502042546 41 303 0.0 0.0 0.00 0.00 0.00 90 1037.8
20260502041617 41 303 0.0 1.0 0.00 0.00 0.00 90 1037.6
20260502040648 41 303 0.0 0.0 0.00 0.00 0.00 90 1037.7
20260502035558 41 0.0 0.0 0.00 0.00 0.00 91 1037.7
20260502034546 41 0.0 0.0 0.00 0.00 0.00 89 1037.5
20260502033536 41 303 0.0 0.0 0.00 0.00 0.00 89 1037.5
20260502032528 41 0.0 0.0 0.00 0.00 0.00 89 1037.5
20260502031516 42 302 0.0 0.0 0.00 0.00 0.00 88 1037.4
20260502030607 41 0.0 0.0 0.00 0.00 0.00 89 1037.5
20260502025557 41 0.0 0.0 0.00 0.00 0.00 88 1037.4
20260502024612 42 0.0 0.0 0.00 0.00 0.00 87 1037.2
20260502023543 42 0.0 0.0 0.00 0.00 0.00 88 1037.3
20260502022529 42 0.0 0.0 0.00 0.00 0.00 87 1037.3